Vorticity
5 9 8 0 13 -4 3 23 53 42 24 11 7 17 7 11 13 7 1 14 12 3 -1 3 5 5 16 24 10 -5 3 20 41 6 5 30 -17 26 3 -14 4 -2 -3 4
6 4 3 5 5 -0 5 11 50 43 23 14 7 11 10 -0 13 7 4 -2 14 9 -2 -0 3 6 21 25 9 21 5 -17 25 12 10 35 -11 7 5 0 12 -6 4 5
3 1 2 9 2 1 -0 14 37 47 34 18 8 5 7 10 11 11 8 1 6 12 11 5 3 5 8 30 9 17 15 22 24 19 2 3 12 -18 31 14 14 -16 7 2
6 0 4 7 0 5 0 13 18 36 29 19 11 9 7 10 6 13 13 5 2 8 7 11 6 6 11 11 13 22 12 20 37 -22 5 16 -5 -12 6 18 17 14 0 1
7 2 5 11 -1 8 5 16 39 49 35 15 13 11 13 14 9 10 13 11 3 5 10 4 7 2 4 9 11 17 25 0 9 -7 -6 5 7 7 11 6 2 1 -3 13
-0 6 4 7 0 4 6 5 37 40 29 20 13 10 10 13 6 13 7 14 9 5 6 12 4 1 4 6 7 13 3 25 32 19 21 19 12 9 6 3 9 12 12 7
2 3 3 8 -4 3 2 5 46 45 36 16 11 16 7 17 14 4 9 8 10 9 8 8 13 2 -0 7 14 7 11 6 8 10 15 17 17 19 16 11 10 15 16 15
7 4 3 0 2 2 4 9 36 53 34 17 19 17 7 9 17 8 12 9 8 11 10 8 13 14 10 7 6 10 8 10 11 6 6 9 8 9 8 7 8 8 6 7
12 4 5 0 1 2 1 12 30 46 35 21 9 13 14 2 17 12 9 6 6 7 12 10 13 12 8 5 6 11 8 7 10 12 9 9 9 11 12 12 13 13 16 11
4 11 2 1 4 4 2 11 28 44 35 30 15 9 20 6 8 19 5 13 8 2 11 9 10 12 12 8 10 15 8 12 10 10 9 10 10 11 11 15 16 13 14 15
7 -5 1 13 4 4 4 12 35 31 34 19 36 11 10 20 3 11 8 14 18 8 4 8 7 10 11 10 10 10 10 10 11 10 8 10 9 9 9 8 8 11 9 7
4 6 12 -8 6 2 6 12 40 35 21 16 29 27 15 15 13 -1 3 10 12 18 7 7 12 10 14 9 10 13 11 9 10 9 9 10 9 10 10 11 10 9 12 10
-3 1 5 11 4 -2 8 5 23 35 28 18 27 30 17 13 15 4 1 4 4 4 10 9 12 8 17 10 8 13 10 11 9 7 6 10 10 10 10 9 9 7 12 14
4 13 9 8 2 10 3 4 26 32 35 16 25 30 36 19 14 8 5 2 3 9 4 7 8 10 9 19 6 5 10 13 13 12 9 11 11 10 10 8 6 5 6 8
6 5 3 1 1 11 10 12 26 25 26 31 22 23 36 25 15 16 4 6 0 6 10 10 9 10 11 15 15 11 4 4 5 5 6 6 5 6 5 4 4 4 5 5
10 7 1 2 -2 11 6 30 12 37 31 31 26 22 28 27 18 20 6 10 12 9 12 10 7 8 10 13 12 14 13 13 13 11 11 11 10 10 12 11 11 12 12 11
-9 0 2 0 -6 16 14 22 16 30 30 24 26 27 28 22 24 19 9 6 2 2 9 10 5 5 9 10 11 15 12 11 12 14 14 11 9 9 10 10 10 11 14 16
0 5 15 3 1 -10 9 25 34 17 44 29 11 14 30 25 24 19 17 6 1 3 0 4 11 8 4 8 8 5 6 8 7 5 4 5 5 4 4 5 6 8 10 8
-0 1 -2 -5 -0 8 -9 28 35 22 36 36 12 11 7 6 20 27 7 27 6 -4 0 2 2 5 5 10 6 8 5 4 8 7 7 9 10 11 12 11 10 10 11 11
-1 1 2 6 6 -1 5 18 47 11 12 18 14 16 7 12 21 25 -2 28 25 10 5 1 5 3 4 6 9 9 10 10 6 5 -0 1 2 -1 1 4 4 12 11 9
1 5 0 10 -5 2 12 -12 62 31 9 10 9 16 9 20 8 17 27 19 26 16 13 11 16 19 8 5 5 6 4 8 8 3 -1 0 7 11 7 4 6 9 14 11
0 -1 2 6 5 -8 -11 11 14 74 16 -10 12 19 3 25 12 -7 17 19 29 10 9 6 8 12 9 10 10 10 11 11 10 12 7 9 6 9 10 11 10 15 13 9
5 0 1 11 7 3 2 -7 6 71 21 10 6 25 6 5 23 -2 -0 18 21 14 31 6 -2 4 4 1 2 6 9 11 15 13 13 7 6 10 12 16 18 15 11 11
3 2 4 5 5 2 7 -1 21 32 43 8 9 12 22 20 5 34 4 -12 -6 18 24 26 26 9 8 12 13 10 15 27 30 35 38 35 28 23 17 16 16 14 13 15
2 4 7 11 4 4 -3 -1 33 47 49 7 -1 14 18 10 15 14 23 1 7 5 12 12 12 11 12 13 18 23 12 14 11 20 27 26 25 24 23 21 18 17 17 16
4 3 11 7 5 -3 -6 11 37 38 50 16 6 1 24 17 13 1 17 4 16 20 3 6 11 15 20 23 17 6 5 8 11 8 15 15 14 15 19 19 21 18 16 16
3 7 7 6 3 1 -0 37 40 26 50 15 9 4 10 9 16 10 9 8 11 12 4 9 6 18 13 20 7 3 2 3 9 16 4 0 -1 9 10 5 8 20 22 20
Height
5707 5698 5686 5672 5657 5641 5625 5610 5600 5591 5590 5589 5588 5586 5584 5583 5581 5579 5579 5576 5573 5571 5568 5566 5563 5560 5557 5556 5556 5558 5559 5562 5570 5577 5583 5591 5599 5607 5615 5623 5629 5633 5638 5644
5703 5693 5681 5670 5656 5642 5626 5609 5597 5588 5585 5583 5583 5583 5582 5581 5579 5579 5579 5578 5575 5573 5572 5570 5567 5565 5563 5562 5562 5562 5564 5568 5573 5579 5585 5590 5598 5607 5613 5621 5625 5629 5633 5637
5697 5688 5677 5666 5653 5640 5622 5605 5594 5586 5583 5579 5578 5578 5579 5579 5578 5577 5578 5578 5576 5574 5574 5571 5570 5568 5567 5566 5567 5566 5568 5570 5575 5586 5592 5597 5602 5607 5612 5616 5619 5625 5629 5633
5692 5682 5673 5659 5648 5634 5619 5604 5593 5581 5578 5576 5575 5575 5576 5575 5575 5575 5576 5577 5577 5575 5574 5574 5572 5572 5571 5570 5570 5571 5572 5574 5578 5586 5592 5596 5603 5607 5611 5615 5620 5623 5627 5627
5686 5677 5667 5656 5645 5631 5616 5602 5588 5577 5574 5572 5570 5570 5572 5573 5572 5573 5574 5575 5575 5575 5574 5575 5574 5574 5574 5574 5574 5573 5576 5579 5583 5586 5590 5595 5599 5602 5607 5610 5613 5617 5621 5623
5679 5670 5660 5651 5640 5627 5610 5597 5582 5574 5570 5568 5567 5567 5568 5569 5569 5571 5571 5573 5573 5574 5574 5574 5575 5576 5576 5576 5576 5577 5578 5580 5583 5586 5588 5592 5597 5601 5605 5609 5611 5613 5616 5618
5670 5662 5655 5644 5635 5622 5608 5592 5577 5571 5568 5565 5564 5564 5564 5566 5566 5568 5568 5569 5572 5573 5573 5573 5574 5575 5576 5577 5578 5578 5579 5582 5584 5586 5588 5591 5595 5598 5601 5603 5605 5609 5612 5614
5661 5655 5649 5639 5630 5619 5605 5589 5576 5565 5561 5559 5559 5559 5560 5561 5563 5564 5566 5567 5569 5570 5572 5572 5573 5574 5576 5577 5578 5579 5580 5582 5584 5587 5590 5593 5595 5597 5600 5601 5604 5606 5608 5611
5655 5648 5642 5633 5623 5611 5599 5585 5570 5561 5557 5557 5556 5556 5558 5559 5559 5561 5563 5565 5567 5569 5570 5570 5572 5573 5574 5576 5577 5578 5580 5581 5584 5586 5589 5591 5593 5595 5597 5599 5601 5603 5605 5605
5649 5642 5635 5626 5617 5606 5593 5581 5568 5559 5551 5552 5553 5551 5553 5554 5556 5557 5558 5562 5565 5567 5568 5569 5570 5571 5573 5574 5576 5577 5579 5581 5583 5584 5586 5589 5591 5593 5594 5597 5601 5599 5601 5602
5644 5637 5628 5620 5610 5599 5589 5576 5561 5555 5548 5544 5546 5544 5545 5550 5551 5553 5556 5559 5561 5564 5566 5568 5568 5569 5571 5572 5574 5576 5578 5580 5582 5583 5585 5588 5588 5591 5593 5595 5595 5596 5598 5599
5639 5632 5625 5615 5604 5594 5583 5570 5557 5552 5545 5539 5539 5539 5539 5543 5548 5550 5552 5555 5556 5560 5564 5566 5566 5567 5569 5570 5572 5574 5577 5579 5581 5583 5584 5585 5587 5588 5589 5591 5593 5593 5594 5595
5633 5627 5620 5609 5598 5587 5579 5567 5556 5547 5544 5535 5533 5531 5532 5534 5542 5546 5548 5552 5554 5557 5559 5563 5564 5565 5567 5568 5570 5572 5574 5576 5578 5581 5582 5584 5585 5586 5587 5588 5590 5591 5592 5592
5628 5621 5614 5604 5593 5582 5574 5563 5550 5542 5538 5534 5525 5527 5526 5530 5533 5540 5543 5548 5550 5553 5556 5560 5562 5563 5564 5566 5568 5570 5573 5574 5576 5578 5579 5580 5581 5583 5584 5586 5587 5588 5589 5589
5622 5615 5609 5599 5588 5578 5568 5556 5543 5534 5531 5526 5523 5522 5523 5525 5528 5533 5538 5543 5547 5550 5553 5556 5559 5561 5563 5563 5564 5567 5569 5571 5573 5574 5576 5577 5579 5580 5582 5583 5584 5585 5586 5586
5616 5610 5603 5594 5584 5573 5564 5552 5542 5533 5527 5523 5522 5520 5520 5521 5524 5528 5534 5538 5544 5548 5551 5554 5556 5558 5560 5561 5562 5564 5565 5567 5569 5571 5572 5573 5575 5576 5577 5578 5579 5580 5581 5582
5611 5605 5596 5588 5579 5569 5558 5546 5537 5530 5526 5522 5519 5517 5516 5517 5521 5525 5530 5535 5540 5544 5548 5551 5554 5556 5557 5558 5559 5561 5562 5564 5566 5568 5570 5571 5571 5572 5573 5573 5574 5575 5575 5576
5605 5599 5592 5584 5575 5564 5555 5544 5535 5530 5524 5522 5519 5517 5518 5519 5519 5523 5526 5531 5535 5540 5545 5548 5550 5553 5555 5556 5557 5559 5560 5562 5563 5565 5566 5567 5568 5568 5569 5569 5569 5569 5569 5570
5599 5594 5588 5581 5572 5565 5556 5543 5536 5532 5530 5523 5521 5520 5519 5519 5519 5521 5525 5528 5531 5536 5541 5543 5547 5550 5552 5551 5554 5555 5557 5558 5559 5560 5561 5562 5563 5563 5563 5563 5563 5563 5563 5563
5592 5587 5583 5577 5571 5563 5554 5545 5536 5534 5531 5528 5523 5520 5520 5519 5519 5520 5524 5525 5527 5531 5537 5539 5543 5547 5547 5547 5549 5551 5552 5554 5555 5556 5557 5557 5558 5558 5558 5558 5557 5556 5556 5556
5585 5581 5577 5571 5565 5559 5551 5545 5538 5532 5529 5526 5524 5522 5520 5518 5519 5519 5521 5523 5524 5528 5533 5534 5539 5542 5540 5543 5545 5546 5547 5548 5549 5550 5550 5550 5550 5550 5550 5550 5550 5549 5548 5548
5577 5573 5568 5563 5558 5553 5547 5541 5536 5531 5529 5526 5523 5520 5521 5519 5520 5520 5520 5520 5521 5524 5528 5530 5534 5535 5536 5537 5539 5540 5541 5541 5541 5542 5542 5541 5541 5541 5541 5541 5541 5541 5541 5541
5568 5564 5561 5556 5551 5545 5540 5535 5530 5524 5522 5520 5522 5519 5517 5517 5517 5519 5518 5518 5519 5520 5522 5525 5529 5529 5530 5532 5533 5534 5534 5534 5533 5532 5532 5531 5531 5531 5531 5531 5532 5532 5533 5533
5559 5555 5552 5548 5540 5537 5535 5529 5522 5516 5512 5517 5514 5515 5512 5512 5513 5514 5515 5516 5516 5516 5518 5520 5521 5524 5525 5526 5527 5528 5528 5526 5525 5522 5521 5520 5520 5521 5522 5523 5524 5524 5525 5525
5549 5545 5541 5537 5533 5529 5527 5520 5511 5507 5506 5507 5511 5511 5510 5509 5510 5510 5511 5512 5513 5514 5516 5517 5518 5519 5520 5521 5522 5523 5523 5523 5521 5519 5518 5517 5516 5516 5516 5517 5517 5518 5518 5518
5539 5536 5530 5527 5522 5519 5516 5510 5502 5497 5496 5499 5502 5506 5505 5504 5505 5507 5507 5508 5509 5511 5512 5513 5514 5514 5515 5516 5517 5519 5520 5520 5518 5518 5517 5515 5515 5515 5515 5514 5514 5513 5512 5512
5528 5523 5519 5516 5513 5509 5503 5499 5492 5487 5488 5491 5495 5497 5499 5499 5501 5502 5502 5502 5504 5506 5508 5509 5510 5510 5511 5512 5513 5515 5516 5517 5516 5516 5515 5515 5515 5514 5514 5513 5512 5510 5509 5508